Location: Stara Lesna
(49.1528°N, 20.2911°E)
Time: 18:49:05
(UTC+02:00)

Cosmos 1821 Rocket - Pass Details

Date: 13 July 2020
Orbit: 945 x 1004 km, 82.9° (Epoch: 10 August)

Event Time Altitude Azimuth Distance (km) Brightness Sun altitude
Exits shadow 00:31:55 32° 188° (S) 1,572 4.5 -19.0°
Maximum altitude 00:34:58 89° 275° (W) 954 3.9 -19.0°
Drops below altitude 10° 00:41:06 10° 9° (N) 2,679 7.5 -19.0°
Sets 00:43:36 0° 10° (N) 3,630 8.6 -19.1°
